Weather History for Poplar Bluff, MO

Change the Weather History Date:

Friday, February 8, 2013

  Actual Average Record
Temperature  
Mean Temperature 44 °F -  
Max Temperature 51 °F 41 °F 72 °F (1932)
Min Temperature 37 °F 22 °F 2 °F (1933)
Degree Days  
Heating Degree Days 21    
Moisture  
Dew Point 33 °F    
Average Humidity 70    
Maximum Humidity 80    
Minimum Humidity 62    
Precipitation  
Precipitation 0.00 in - - ()
Sea Level Pressure  
Sea Level Pressure 30.23 in    
Wind  
Wind Speed 13 mph (NNE)    
Max Wind Speed 17 mph    
Max Gust Speed 28 mph    
Visibility 9 miles    
Events      
Averages and records for this station are not official NWS values.
T = Trace of Precipitation, MM = Missing Value Source: NWS Daily Summary

Daily Weather History Graph

Daily Weather History Graph

Search for Another Location

Airport:

Trip Planner

Search our weather history database for the weather conditions in past years. The results will help you decide how hot, cold, wet, or windy it might be!

Date:

Astronomy

Feb. 08, 2013 Rise Set
Actual Time 6:56 AM CST 5:34 PM CST
Civil Twilight 6:29 AM CST 6:01 PM CST
Nautical Twilight 5:59 AM CST 6:32 PM CST
Astronomical Twilight 5:29 AM CST 7:02 PM CST
Moon 5:24 AM CST (2/8) 4:08 PM CST (2/8)
Length of Visible Light 11h 31m
Length of Day
10h 37m
Waning Crescent, 3% of the Moon is Illuminated
Feb 8
Waning Crescent
Feb 10
New
Feb 17
First Quarter
Feb 25
Full
Mar 4
Last Quarter

Hourly Weather History & Observations

Time (CST) Temp. Windchill Dew Point Humidity Pressure Visibility Wind Dir Wind Speed Gust Speed Precip Events Conditions
12:07 AM 51.8 °F - 44.6 °F 76% 29.96 in 10.0 mi North 16.1 mph 27.6 mph N/A   Overcast
12:53 AM 48.9 °F - 43.0 °F 80% 29.98 in 10.0 mi North 16.1 mph 21.9 mph N/A   Overcast
1:53 AM 48.9 °F - 41.0 °F 74% 30.01 in 10.0 mi North 11.5 mph - N/A   Overcast
2:53 AM 46.9 °F - 39.0 °F 74% 30.02 in 10.0 mi North 16.1 mph - N/A   Overcast
3:53 AM 45.0 °F 37.6 °F 37.9 °F 76% 30.06 in 10.0 mi North 17.3 mph 25.3 mph N/A   Overcast
4:53 AM 44.1 °F 38.1 °F 36.0 °F 73% 30.11 in 10.0 mi North 11.5 mph - N/A   Overcast
5:53 AM 44.1 °F 36.5 °F 34.0 °F 68% 30.14 in 10.0 mi NNW 17.3 mph 24.2 mph N/A   Overcast
6:53 AM 43.0 °F 36.4 °F 34.0 °F 71% 30.18 in 10.0 mi North 12.7 mph - N/A   Overcast
7:53 AM 42.1 °F 35.2 °F 32.0 °F 67% 30.23 in 9.0 mi North 12.7 mph - N/A   Overcast
8:53 AM 41.0 °F 33.9 °F 32.0 °F 70% 30.25 in 7.0 mi North 12.7 mph - N/A   Overcast
9:53 AM 41.0 °F 32.8 °F 32.0 °F 70% 30.28 in 6.0 mi North 16.1 mph - N/A   Haze
10:53 AM 41.0 °F 34.3 °F 33.1 °F 73% 30.30 in 6.0 mi North 11.5 mph - N/A   Haze
11:53 AM 41.0 °F 33.5 °F 32.0 °F 70% 30.31 in 7.0 mi North 13.8 mph - N/A   Overcast
12:53 PM 42.1 °F 35.2 °F 30.9 °F 65% 30.30 in 10.0 mi NNE 12.7 mph - N/A   Overcast
1:53 PM 43.0 °F 37.2 °F 30.9 °F 62% 30.29 in 10.0 mi NNE 10.4 mph - N/A   Mostly Cloudy
2:53 PM 43.0 °F 38.2 °F 30.9 °F 62% 30.30 in 10.0 mi NNE 8.1 mph - N/A   Overcast
3:53 PM 42.1 °F 35.7 °F 30.9 °F 65% 30.32 in 9.0 mi NNE 11.5 mph - N/A   Overcast
4:53 PM 42.1 °F 36.6 °F 32.0 °F 67% 30.35 in 9.0 mi North 9.2 mph - N/A   Overcast
5:53 PM 39.9 °F 33.9 °F 30.0 °F 68% 30.32 in 10.0 mi NE 9.2 mph - N/A   Overcast
6:53 PM 39.0 °F 32.8 °F 30.0 °F 70% 30.33 in 10.0 mi NNE 9.2 mph - N/A   Overcast
7:53 PM 39.0 °F 34.0 °F 28.9 °F 67% 30.37 in 10.0 mi NNE 6.9 mph - N/A   Overcast
8:53 PM 39.0 °F 36.8 °F 30.0 °F 70% 30.36 in 10.0 mi NE 3.5 mph - N/A   Overcast
9:53 PM 37.9 °F 32.1 °F 28.9 °F 70% 30.36 in 10.0 mi NE 8.1 mph - N/A   Overcast
10:53 PM 37.9 °F 31.5 °F 28.9 °F 70% 30.35 in 10.0 mi ENE 9.2 mph - N/A   Overcast
11:53 PM 37.0 °F 31.0 °F 28.9 °F 73% 30.35 in 10.0 mi ENE 8.1 mph - N/A   Overcast